Regional Weather Roundup
Issued by NWS

Home | Current Version | Previous Version | Graphics & Text | Print | Product List | Glossary On
Versions: 1 2 3 4 5 6 7 8 9 10 11 12 13 14 15 16 17 18 19 20 21 22 23 24 25 26 27 28 29 30 31 32 33 34 35 36 37 38 39 40 41 42 43 44 45 46 47 48 49 50
000
ASUS43 KDTX 210010
RWRMI
MICHIGAN HOURLY REGIONAL WEATHER ROUNDUP
NATIONAL WEATHER SERVICE DETROIT/PONTIAC MI
700 PM EST SAT JAN 20 2018

NOTE: "FAIR" INDICATES FEW OR NO CLOUDS BELOW 12,000 FEET WITH NO
SIGNIFICANT WEATHER AND/OR OBSTRUCTION TO VISIBILITY.

MIZ047>049-052>055-059>063-066>070-074>076-081>083-210100-
SOUTHEAST LOWER MICHIGAN

CITY           SKY/WX    TMP DP  RH WIND       PRES   REMARKS
ADRIAN         FAIR      35  30  82 SW7       30.03R WCI  29
6HR MIN TEMP:  34; 6HR MAX TEMP:  39;

ALMA           FAIR      38  32  79 SW7       29.98R WCI  32
6HR MIN TEMP:  37; 6HR MAX TEMP:  45;

ANN ARBOR      FAIR      34  29  82 SW6       30.02R WCI  29
BAD AXE        FAIR      33  29  84 SW3       29.97R
6HR MIN TEMP:  33; 6HR MAX TEMP:  40;

CARO           FAIR      35  30  82 SW6       29.97R WCI  30
DETROIT CITY   FAIR      38  29  70 SW10      30.02R WCI  31
6HR MIN TEMP:  37; 6HR MAX TEMP:  44;

DETROIT        FAIR      35  29  78 SW8       30.03R WCI  29
6HR MIN TEMP:  35; 6HR MAX TEMP:  43;

FLINT          FAIR      37  28  70 SW7       29.99R WCI  32
6HR MIN TEMP:  37; 6HR MAX TEMP:  41;

GROSSE ILE     FAIR      36  30  79 SW7       30.02R WCI  31
6HR MIN TEMP:  36; 6HR MAX TEMP:  41;

HILLSDALE      FAIR      34  30  86 SW5       30.01R WCI  30
HOWELL         FAIR      36  30  78 SW5       30.00R WCI  32
6HR MIN TEMP:  36; 6HR MAX TEMP:  42;


CITY           SKY/WX    TMP DP  RH WIND       PRES   REMARKS
JACKSON        FAIR      32  27  81 SW5       30.01R WCI  27
6HR MIN TEMP:  32; 6HR MAX TEMP:  40;

LAMBERTVILLE   FAIR      37  31  80 SW3       30.03R
6HR MIN TEMP:  37; 6HR MAX TEMP:  40;

LANSING        FAIR      36  30  79 S8        30.00R WCI  30
6HR MIN TEMP:  36; 6HR MAX TEMP:  44;

LAPEER         FAIR      34  28  81 CALM      29.98R
6HR MIN TEMP:  33; 6HR MAX TEMP:  42;

MONROE         FAIR      34  29  81 SW5       30.03R WCI  30
6HR MIN TEMP:  34; 6HR MAX TEMP:  41;

MT. CLEMENS    PTCLDY    38  28  65 SW7       30.00R WCI  33
PONTIAC        MOCLDY    39  30  70 SW5       29.98R
6HR MIN TEMP:  38; 6HR MAX TEMP:  44;

PORT HOPE        N/A     33  29  85 CALM      29.96R
6HR MIN TEMP:  33; 6HR MAX TEMP:  42;

PORT HURON     FAIR      34  27  75 S6        29.99R WCI  29
TRI CITIES     FAIR      37  32  82 S6        29.97R WCI  32
6HR MIN TEMP:  37; 6HR MAX TEMP:  42;

MIDLAND        FAIR      38  32  78 SW3       29.97R
6HR MIN TEMP:  38; 6HR MAX TEMP:  47;

TROY           FAIR      38  30  72 SW7       30.02R WCI  33
SAGINAW HB     FAIR      36  32  87 SW7       29.98R WCI  30
$$
MIZ043>046-050>051-056>058-064>065-071>073-077>080-210100-
SOUTHWEST LOWER MICHIGAN

CITY           SKY/WX    TMP DP  RH WIND       PRES   REMARKS
BATTLE CREEK   FAIR      35  29  78 S7        30.01R WCI  29
6HR MIN TEMP:  34; 6HR MAX TEMP:  41;

BENTON HARBOR  FAIR      38  31  76 S6        30.00R WCI  33
6HR MIN TEMP:  38; 6HR MAX TEMP:  43;

BIG RAPIDS     FAIR      38  30  72 SW3       29.95R
6HR MIN TEMP:  38; 6HR MAX TEMP:  47;

COLDWATER      FAIR      36  32  86 SW5       30.02R WCI  32
6HR MIN TEMP:  36; 6HR MAX TEMP:  38;

FREMONT        FAIR      35  28  75 S3        29.97S
6HR MIN TEMP:  35; 6HR MAX TEMP:  46;

HOLLAND        FAIR      34  29  82 SW3       30.00R
6HR MIN TEMP:  34; 6HR MAX TEMP:  41;

GRAND RAPIDS   FAIR      36  29  75 W5        29.99R WCI  32
6HR MIN TEMP:  35; 6HR MAX TEMP:  44;

IONIA          FAIR      36  30  78 SW6       29.98R WCI  32
6HR MIN TEMP:  35; 6HR MAX TEMP:  43;

KALAMAZOO      FAIR      37  29  72 S5        30.01R WCI  33
6HR MIN TEMP:  36; 6HR MAX TEMP:  43;

LUDINGTON      FAIR      33  32  97 SW3       29.95S FOG
6HR MIN TEMP:  33; 6HR MAX TEMP:  40;

MARSHALL       FAIR      34  29  81 SW3       30.01R
6HR MIN TEMP:  34; 6HR MAX TEMP:  40;

MOUNT PLEASANT FAIR      40  32  71 SW5       29.96R
6HR MIN TEMP:  40; 6HR MAX TEMP:  47;

MUSKEGON       FAIR      34  30  85 S5        29.99R WCI  30
6HR MIN TEMP:  32; 6HR MAX TEMP:  42;

SOUTH HAVEN    FAIR      37  30  74 S3        30.00R
$$
MIZ016>042-210100-
NORTHERN LOWER MICHIGAN

CITY           SKY/WX    TMP DP  RH WIND       PRES   REMARKS
ALPENA         CLOUDY    35  31  85 CALM      29.95R
6HR MIN TEMP:  34; 6HR MAX TEMP:  43;

BEAVER ISLAND  CLOUDY    35  32  87 SW5       29.93S WCI  31
6HR MIN TEMP:  35; 6HR MAX TEMP:  39;

BELLAIRE       CLOUDY    33  32  96 CALM      29.95R
6HR MIN TEMP:  33; 6HR MAX TEMP:  42;

CADILLAC       FAIR      33  29  82 S3        29.92S
CHARLEVOIX     CLOUDY    35  32  88 CALM      29.97R
6HR MIN TEMP:  35; 6HR MAX TEMP:  41;

FRANKFORT      FAIR      33  32  96 CALM      29.95R
GAYLORD        CLOUDY    35  31  85 CALM      29.91S
6HR MIN TEMP:  34; 6HR MAX TEMP:  39;

GRAYLING       FAIR      34  28  80 CALM      29.93S
6HR MIN TEMP:  33; 6HR MAX TEMP:  43;

HARBOR SPRINGS CLOUDY    33  32  99 CALM      29.94R
HOUGHTON LAKE  FAIR      32  28  85 CALM      29.93R
6HR MIN TEMP:  32; 6HR MAX TEMP:  42;

MANISTEE       FAIR      32  29  88 CALM      29.95R
OSCODA         FAIR      35  28  76 SW3       29.94S
6HR MIN TEMP:  35; 6HR MAX TEMP:  41;

PELLSTON       CLOUDY    36  31  82 CALM      29.93S
6HR MIN TEMP:  36; 6HR MAX TEMP:  41;

ROGERS CITY    CLOUDY    37  30  77 W3        29.95R
TRAVERSE CITY  MOCLDY    35  30  82 CALM      29.93R
6HR MIN TEMP:  34; 6HR MAX TEMP:  43;

$$
MIZ007>008-015-210100-
EASTERN UPPER MICHIGAN

CITY           SKY/WX    TMP DP  RH WIND       PRES   REMARKS
KINROSS        CLOUDY    36  29  75 SW3       29.92R
6HR MIN TEMP:  36; 6HR MAX TEMP:  40;

MACKINAC ISLAN FAIR      34  31  88 SW5       29.93R WCI  30
6HR MIN TEMP:  34; 6HR MAX TEMP:  37;

NEWBERRY       CLOUDY    34  32  92 SW7       29.90R WCI  28
6HR MIN TEMP:  32; 6HR MAX TEMP:  39;

S. S. MARIE    CLOUDY    38  31  76 W5        29.90R WCI  34
6HR MIN TEMP:  38; 6HR MAX TEMP:  42;

MUNISING         N/A     36  32  85 S6        29.90R WCI  31
6HR MIN TEMP:  35; 6HR MAX TEMP:  42;

$$
MIZ004>006-011>014-085-210100-
CENTRAL UPPER MICHIGAN

CITY           SKY/WX    TMP DP  RH WIND       PRES   REMARKS
ESCANABA       CLOUDY    34  30  85 CALM      29.92R
6HR MIN TEMP:  34; 6HR MAX TEMP:  39;

MENOMINEE      MOCLDY    37  30  75 SW5       29.93S WCI  33
6HR MIN TEMP:  37; 6HR MAX TEMP:  44;

SAWYER-GWINN   CLEAR     32  27  80 SW7       29.88R WCI  26
$$
MIZ001>003-009>011-084-210100-
WESTERN UPPER MICHIGAN

CITY           SKY/WX    TMP DP  RH WIND       PRES   REMARKS
IRON MOUNTAIN  CLOUDY    34  29  82 CALM      29.88R
6HR MIN TEMP:  34; 6HR MAX TEMP:  39;

HOUGHTON       CLOUDY    34  27  75 NW6       29.86R WCI  29
6HR MIN TEMP:  33; 6HR MAX TEMP:  39;

COPPER HARBOR    N/A     33  29  85 SW3       29.88R
6HR MIN TEMP:  32; 6HR MAX TEMP:  38;

IRONWOOD       FAIR      29  27  92 S3        29.88R
6HR MIN TEMP:  29; 6HR MAX TEMP:  41;

$$

ABBREVIATIONS USED IN REMARKS
   TC - TEMPERATURE IN CELSIUS
  WCI - WIND CHILL INDEX
   HX - HEAT INDEX
  VSB - VISIBILITY





USA.gov is the U.S. government's official web portal to all federal, state and local government web resources and services.